Карточка аэропорта UASK

Внимание!
Информация на этой странице в стадии наполнения.
Если вы не увидели какой-то информации, или заметили неточность - пожалуйста сообщите нам!
Спасибо!
Команда RU-STAFF
Название аэропортаУсть-Каменогорск
Название аэропорта (англ.)Ust-Kamenogorsk
Превышение942 ft. (287.1 m.)
Координаты50°2.2020000000002', 82°29.598'
Высота перехода10000ft
Эшелон переходаFL120, QNH<733:FL130
Коды ответчика7250-7253, 0650-0657
Зона ОрВДАлматы РПИ (UAAA)
Данные METARUASK 230430Z VRB01MPS 9999 SCT033 24/17 Q1009 NOSIG RMK QFE731/0975
Проноз погоды (TAF)UASK 230201Z 2303/2312 07003MPS 9999 SCT100 TEMPO 2303/2306 04003MPS 3100 BR FEW004 TEMPO 2306/2312 36004G09MPS SCT050
NOTAMshow/hide NOTAM
AWOS   TABLE

Информация о ВПП

ВПП Длина ВПП (м.) Покрытие Курс ВПП Частота ILS
122514Асфальтобетон124111.7
302514Асфальтобетон304109.7

Диспетчерские позиции

Позывной Наименование органа УВД Частота
UASK_TWRУсть-Каменогорск-Вышка130.1



Спутниковое изображение